Location: *
(45.9500°N, 9.0833°E)
Time: 18:35:21
(UTC+00:00)

Meteor 1-27 Rocket - Pass Details

Date: 03 March 2021
Orbit: 830 x 909 km, 81.3° (Epoch: 14 April)

Event Time Altitude Azimuth Distance (km) Brightness Sun altitude
Rises 17:34:22 0° 345° (NNW) 3,386 7.0 -4.5°
Reaches altitude 10° 17:36:48 10° 342° (NNW) 2,448 6.3 -4.9°
Maximum altitude 17:42:13 60° 264° (W) 951 4.4 -5.9°
Drops below altitude 10° 17:47:39 10° 186° (S) 2,449 6.2 -6.8°
Sets 17:50:06 0° 182° (S) 3,389 6.9 -7.2°
